Location: Unspecified
(0.0000°N, 0.0000°E)
Time: 17:49:08
(UTC+00:00)

STARLINK 1065 - Pass Details

Date: 17 January 2020
Orbit: 548 x 551 km, 53.0° (Epoch: 17 January)

Event Time Altitude Azimuth Distance (km) Brightness Sun altitude
Rises 19:35:30 0° 291° (WNW) 2,703 7.9 -19.9°
Reaches altitude 10° 19:38:50 10° 263° (W) 1,814 7.3 -20.7°
Maximum altitude 19:40:44 13° 235° (SW) 1,637 7.1 -21.1°
Drops below altitude 10° 19:42:38 10° 207° (SSW) 1,818 6.9 -21.6°
Sets 19:46:00 0° 179° (S) 2,714 7.4 -22.3°
